LOT3NC EPPO-EPWA

Flight info

Callsign LOT3NC
Flight time 0h 40m
Altitude 31000
Route OBOKU2B OBOKU DCT DOSIX DCT BIMPA BIMPA6V
Aircraft E75L/M-SDE3GILORVW/S

Departure

Time 2026-05-04 12:24
Airport Poznań-Ławica Airport (EPPO)

Arrival

Time 2026-05-04 13:05
Airport Warsaw Chopin Airport (EPWA)
Time Latitude Longitude Altitude Speed Heading
2026-05-04 12:14 52.41574 16.82831 313 ft 0 kts 193°
2026-05-04 12:15 52.41575 16.82831 313 ft 0 kts 193°
2026-05-04 12:16 52.41588 16.82837 313 ft 2 kts 195°
2026-05-04 12:16 52.41603 16.82843 313 ft 2 kts 194°
2026-05-04 12:16 52.41617 16.82850 313 ft 2 kts 195°
2026-05-04 12:16 52.41627 16.82854 313 ft 0 kts 194°
2026-05-04 12:17 52.41639 16.82856 313 ft 2 kts 169°
2026-05-04 12:17 52.41652 16.82846 313 ft 2 kts 138°
2026-05-04 12:17 52.41661 16.82826 313 ft 2 kts 106°
2026-05-04 12:17 52.41662 16.82813 313 ft 1 kts 87°
2026-05-04 12:18 52.41662 16.82805 313 ft 0 kts 92°
2026-05-04 12:19 52.41662 16.82810 313 ft 1 kts 92°
2026-05-04 12:20 52.41666 16.82832 313 ft 2 kts 57°
2026-05-04 12:20 52.41691 16.82853 313 ft 5 kts 21°
2026-05-04 12:20 52.41738 16.82879 313 ft 8 kts 18°
2026-05-04 12:20 52.41809 16.82916 313 ft 12 kts 17°
2026-05-04 12:21 52.41850 16.83025 313 ft 13 kts 100°
2026-05-04 12:21 52.41824 16.83176 313 ft 14 kts 106°
2026-05-04 12:21 52.41794 16.83336 313 ft 16 kts 108°
2026-05-04 12:21 52.41758 16.83525 313 ft 18 kts 108°
2026-05-04 12:22 52.41716 16.83739 313 ft 20 kts 108°
2026-05-04 12:22 52.41676 16.83952 313 ft 11 kts 105°
2026-05-04 12:22 52.41709 16.84052 313 ft 8 kts 28°
2026-05-04 12:22 52.41719 16.84061 313 ft 1 kts 26°
2026-05-04 12:23 52.41730 16.84069 313 ft 2 kts 22°
2026-05-04 12:23 52.41749 16.84081 313 ft 4 kts 20°
2026-05-04 12:23 52.41788 16.84096 313 ft 8 kts 353°
2026-05-04 12:23 52.41835 16.84011 313 ft 13 kts 290°
2026-05-04 12:24 52.41896 16.83688 313 ft 63 kts 287°
2026-05-04 12:24 52.42099 16.82644 313 ft 128 kts 287°
2026-05-04 12:24 52.42429 16.81015 518 ft 160 kts 286°
2026-05-04 12:24 52.42792 16.79260 1098 ft 170 kts 284°
2026-05-04 12:25 52.43149 16.77365 1687 ft 180 kts 284°
2026-05-04 12:25 52.43524 16.75363 2205 ft 194 kts 283°
2026-05-04 12:25 52.43924 16.73177 2756 ft 208 kts 285°
2026-05-04 12:25 52.44374 16.70859 3291 ft 223 kts 285°
2026-05-04 12:26 52.44856 16.68361 3812 ft 240 kts 285°
2026-05-04 12:26 52.45285 16.65639 4320 ft 254 kts 270°
2026-05-04 12:26 52.44823 16.62878 4913 ft 262 kts 235°
2026-05-04 12:26 52.43402 16.61015 5645 ft 269 kts 201°
2026-05-04 12:27 52.41555 16.60787 6447 ft 275 kts 174°
2026-05-04 12:27 52.39668 16.61206 7258 ft 276 kts 166°
2026-05-04 12:27 52.38036 16.62844 7976 ft 286 kts 133°
2026-05-04 12:27 52.36997 16.65583 8687 ft 290 kts 128°
2026-05-04 12:28 52.35844 16.68282 9381 ft 294 kts 122°
2026-05-04 12:28 52.34948 16.71291 10049 ft 299 kts 116°
2026-05-04 12:28 52.34185 16.74488 10720 ft 303 kts 112°
2026-05-04 12:28 52.33492 16.77746 11360 ft 307 kts 111°
2026-05-04 12:29 52.32820 16.81070 11926 ft 314 kts 111°
2026-05-04 12:29 52.32135 16.84539 12233 ft 330 kts 110°
2026-05-04 12:29 52.31428 16.88149 12648 ft 341 kts 110°
2026-05-04 12:29 52.30751 16.91892 13208 ft 348 kts 103°
2026-05-04 12:30 52.30394 16.95802 13878 ft 350 kts 100°
2026-05-04 12:30 52.30063 16.99706 14557 ft 350 kts 100°
2026-05-04 12:30 52.29731 17.03588 15215 ft 352 kts 100°
2026-05-04 12:30 52.29387 17.07597 15828 ft 355 kts 100°
2026-05-04 12:31 52.29045 17.11564 16408 ft 359 kts 99°
2026-05-04 12:31 52.28863 17.15632 16960 ft 364 kts 85°
2026-05-04 12:31 52.29190 17.19739 17557 ft 367 kts 84°
2026-05-04 12:31 52.29434 17.23869 18132 ft 369 kts 86°
2026-05-04 12:32 52.29634 17.28037 18710 ft 372 kts 86°
2026-05-04 12:32 52.29996 17.36464 19845 ft 377 kts 86°
2026-05-04 12:32 52.30173 17.40760 20397 ft 379 kts 86°
2026-05-04 12:33 52.30347 17.45037 20939 ft 382 kts 86°
2026-05-04 12:33 52.30519 17.49335 21483 ft 384 kts 86°
2026-05-04 12:33 52.30693 17.53676 22016 ft 387 kts 86°
2026-05-04 12:33 52.30866 17.58082 22537 ft 389 kts 86°
2026-05-04 12:34 52.31038 17.62480 23052 ft 392 kts 86°
2026-05-04 12:34 52.31210 17.66929 23574 ft 394 kts 86°
2026-05-04 12:34 52.31382 17.71401 24062 ft 396 kts 86°
2026-05-04 12:34 52.31552 17.75876 24539 ft 399 kts 86°
2026-05-04 12:35 52.31722 17.80414 24976 ft 397 kts 86°
2026-05-04 12:35 52.31889 17.84895 25047 ft 407 kts 86°
2026-05-04 12:35 52.32062 17.89615 25074 ft 421 kts 86°
2026-05-04 12:35 52.32237 17.94407 25070 ft 430 kts 86°
2026-05-04 12:36 52.32413 17.99314 25066 ft 431 kts 86°
2026-05-04 12:36 52.32586 18.04178 25065 ft 430 kts 86°
2026-05-04 12:36 52.32758 18.09080 25065 ft 430 kts 86°
2026-05-04 12:36 52.32926 18.13910 25065 ft 430 kts 86°
2026-05-04 12:37 52.33093 18.18787 25070 ft 430 kts 86°
2026-05-04 12:37 52.33257 18.23598 25066 ft 429 kts 86°
2026-05-04 12:37 52.33420 18.28482 25068 ft 429 kts 86°
2026-05-04 12:37 52.33580 18.33300 25068 ft 429 kts 86°
2026-05-04 12:38 52.33739 18.38187 25069 ft 429 kts 86°
2026-05-04 12:38 52.33896 18.43058 25069 ft 429 kts 86°
2026-05-04 12:38 52.34049 18.47868 25067 ft 430 kts 86°
2026-05-04 12:38 52.34202 18.52735 25067 ft 429 kts 86°
2026-05-04 12:39 52.34354 18.57621 25067 ft 430 kts 86°
2026-05-04 12:39 52.34504 18.62514 25069 ft 430 kts 86°
2026-05-04 12:39 52.34649 18.67317 25068 ft 429 kts 87°
2026-05-04 12:39 52.34795 18.72235 25067 ft 429 kts 87°
2026-05-04 12:40 52.34938 18.77112 25065 ft 429 kts 87°
2026-05-04 12:40 52.35077 18.81913 25065 ft 429 kts 87°
2026-05-04 12:40 52.35215 18.86761 25067 ft 429 kts 87°
2026-05-04 12:40 52.35353 18.91658 25068 ft 429 kts 87°
2026-05-04 12:41 52.35487 18.96475 25067 ft 429 kts 87°
2026-05-04 12:41 52.35617 19.01267 25058 ft 417 kts 87°
2026-05-04 12:41 52.35744 19.05993 25063 ft 414 kts 87°
2026-05-04 12:41 52.35870 19.10709 25071 ft 415 kts 86°
2026-05-04 12:42 52.35991 19.15369 25034 ft 416 kts 86°
2026-05-04 12:42 52.36113 19.20118 24589 ft 416 kts 87°
2026-05-04 12:42 52.36233 19.24837 24144 ft 412 kts 87°
2026-05-04 12:42 52.36348 19.29471 23695 ft 409 kts 87°
2026-05-04 12:43 52.36462 19.34087 23247 ft 406 kts 87°
2026-05-04 12:43 52.36572 19.38665 22802 ft 404 kts 87°
2026-05-04 12:43 52.36679 19.43173 22364 ft 402 kts 87°
2026-05-04 12:43 52.36786 19.47746 21922 ft 400 kts 87°
2026-05-04 12:44 52.36888 19.52220 21490 ft 397 kts 87°
2026-05-04 12:44 52.36990 19.56727 21053 ft 394 kts 87°
2026-05-04 12:44 52.37090 19.61208 20617 ft 392 kts 87°
2026-05-04 12:44 52.37186 19.65613 20188 ft 391 kts 88°
2026-05-04 12:45 52.37281 19.70046 19759 ft 388 kts 88°
2026-05-04 12:45 52.37373 19.74403 19337 ft 386 kts 88°
2026-05-04 12:45 52.37767 19.78712 18958 ft 381 kts 69°
2026-05-04 12:45 52.38728 19.82702 19026 ft 380 kts 68°
2026-05-04 12:46 52.39708 19.86696 19032 ft 382 kts 67°
2026-05-04 12:46 52.40704 19.90760 19036 ft 383 kts 67°
2026-05-04 12:46 52.41695 19.94810 19037 ft 383 kts 67°
2026-05-04 12:46 52.42681 19.98847 19037 ft 382 kts 67°
2026-05-04 12:47 52.43655 20.02845 19035 ft 381 kts 67°
2026-05-04 12:47 52.44617 20.06799 18837 ft 364 kts 67°
2026-05-04 12:47 52.45536 20.10581 18464 ft 352 kts 67°
2026-05-04 12:47 52.46417 20.14213 18094 ft 342 kts 67°
2026-05-04 12:48 52.47287 20.17806 17720 ft 334 kts 67°
2026-05-04 12:48 52.48130 20.21295 17359 ft 334 kts 67°
2026-05-04 12:48 52.48990 20.24856 17016 ft 335 kts 67°
2026-05-04 12:48 52.49835 20.28364 16646 ft 334 kts 68°
2026-05-04 12:49 52.50600 20.31947 16244 ft 334 kts 81°
2026-05-04 12:49 52.50447 20.35712 15937 ft 331 kts 109°
2026-05-04 12:49 52.49492 20.39065 15520 ft 328 kts 119°
2026-05-04 12:49 52.48397 20.42352 15150 ft 325 kts 120°
2026-05-04 12:50 52.47300 20.45557 14754 ft 323 kts 121°
2026-05-04 12:50 52.46202 20.48729 14418 ft 321 kts 121°
2026-05-04 12:50 52.45096 20.51906 14068 ft 320 kts 121°
2026-05-04 12:50 52.44002 20.55038 13724 ft 318 kts 121°
2026-05-04 12:51 52.42905 20.58175 13372 ft 316 kts 121°
2026-05-04 12:51 52.41819 20.61275 13022 ft 315 kts 121°
2026-05-04 12:51 52.40734 20.64369 12679 ft 313 kts 121°
2026-05-04 12:51 52.39656 20.67439 12334 ft 310 kts 122°
2026-05-04 12:52 52.38580 20.70498 12130 ft 305 kts 122°
2026-05-04 12:52 52.37536 20.73460 12144 ft 306 kts 122°
2026-05-04 12:52 52.36465 20.76497 12148 ft 307 kts 122°
2026-05-04 12:52 52.35397 20.79522 12151 ft 307 kts 122°
2026-05-04 12:53 52.34327 20.82547 12046 ft 309 kts 122°
2026-05-04 12:53 52.33265 20.85548 11744 ft 308 kts 122°
2026-05-04 12:53 52.32188 20.88590 11413 ft 306 kts 122°
2026-05-04 12:53 52.31139 20.91546 11082 ft 303 kts 122°
2026-05-04 12:54 52.30079 20.94529 10748 ft 302 kts 122°
2026-05-04 12:54 52.29029 20.97481 10417 ft 300 kts 122°
2026-05-04 12:54 52.27996 21.00382 10094 ft 299 kts 122°
2026-05-04 12:54 52.26703 21.02990 9770 ft 292 kts 147°
2026-05-04 12:55 52.24999 21.04636 9458 ft 282 kts 153°
2026-05-04 12:55 52.23297 21.06140 9132 ft 275 kts 154°
2026-05-04 12:55 52.21654 21.07575 8826 ft 267 kts 155°
2026-05-04 12:55 52.20019 21.08991 8540 ft 260 kts 155°
2026-05-04 12:56 52.18457 21.10340 8248 ft 254 kts 155°
2026-05-04 12:56 52.16901 21.11681 7972 ft 248 kts 155°
2026-05-04 12:56 52.15406 21.12968 7712 ft 245 kts 154°
2026-05-04 12:56 52.13909 21.14278 7454 ft 245 kts 154°
2026-05-04 12:57 52.12412 21.15590 7191 ft 245 kts 154°
2026-05-04 12:57 52.10918 21.16897 6918 ft 244 kts 154°
2026-05-04 12:57 52.09431 21.18197 6645 ft 242 kts 154°
2026-05-04 12:57 52.07950 21.19492 6370 ft 241 kts 154°
2026-05-04 12:58 52.06469 21.20785 6110 ft 240 kts 154°
2026-05-04 12:58 52.05008 21.22060 5853 ft 240 kts 154°
2026-05-04 12:58 52.03534 21.23346 5588 ft 239 kts 154°
2026-05-04 12:58 52.02015 21.24138 5321 ft 228 kts 186°
2026-05-04 12:59 52.00628 21.23222 5219 ft 213 kts 226°
2026-05-04 12:59 51.99744 21.21304 5138 ft 216 kts 236°
2026-05-04 12:59 51.98942 21.19222 4911 ft 217 kts 238°
2026-05-04 12:59 51.98185 21.17126 4672 ft 217 kts 239°
2026-05-04 13:00 51.97794 21.14810 4469 ft 214 kts 275°
2026-05-04 13:00 51.98447 21.12731 4179 ft 218 kts 316°
2026-05-04 13:00 51.99725 21.11399 3861 ft 219 kts 327°
2026-05-04 13:00 52.01059 21.10202 3539 ft 218 kts 328°
2026-05-04 13:01 52.02387 21.09037 3241 ft 214 kts 328°
2026-05-04 13:01 52.03675 21.07917 2956 ft 210 kts 328°
2026-05-04 13:01 52.04944 21.06818 2646 ft 199 kts 328°
2026-05-04 13:01 52.06110 21.05809 2390 ft 181 kts 327°
2026-05-04 13:02 52.07155 21.04905 2184 ft 166 kts 327°
2026-05-04 13:02 52.08146 21.04044 1932 ft 154 kts 326°
2026-05-04 13:02 52.09058 21.03252 1720 ft 145 kts 326°
2026-05-04 13:02 52.09952 21.02470 1552 ft 150 kts 326°
2026-05-04 13:03 52.10842 21.01700 1365 ft 143 kts 326°
2026-05-04 13:03 52.11772 21.00889 1187 ft 153 kts 327°
2026-05-04 13:03 52.12700 21.00081 991 ft 153 kts 329°
2026-05-04 13:03 52.13617 20.99290 774 ft 152 kts 329°
2026-05-04 13:04 52.14583 20.98450 542 ft 155 kts 330°
2026-05-04 13:04 52.15515 20.97637 367 ft 150 kts 329°
2026-05-04 13:04 52.16341 20.96907 335 ft 110 kts 331°
2026-05-04 13:04 52.16813 20.96528 329 ft 50 kts 352°
2026-05-04 13:05 52.17019 20.96520 332 ft 14 kts
2026-05-04 13:05 52.17075 20.96541 331 ft 8 kts 38°
2026-05-04 13:05 52.17110 20.96637 331 ft 10 kts 64°
2026-05-04 13:05 52.17142 20.96740 332 ft 10 kts 62°
2026-05-04 13:06 52.17195 20.96805 332 ft 10 kts 352°
2026-05-04 13:06 52.17263 20.96750 332 ft 11 kts 330°
2026-05-04 13:06 52.17335 20.96689 332 ft 12 kts 333°
2026-05-04 13:06 52.17413 20.96622 333 ft 12 kts 331°
2026-05-04 13:07 52.17490 20.96606 334 ft 11 kts 46°
2026-05-04 13:07 52.17531 20.96709 336 ft 10 kts 57°
2026-05-04 13:07 52.17569 20.96803 338 ft 9 kts 56°
2026-05-04 13:07 52.17604 20.96892 338 ft 9 kts 58°
2026-05-04 13:08 52.17592 20.96973 340 ft 8 kts 136°
2026-05-04 13:08 52.17544 20.97024 340 ft 8 kts 154°
2026-05-04 13:08 52.17487 20.97070 340 ft 9 kts 152°
2026-05-04 13:08 52.17430 20.97121 341 ft 8 kts 149°
2026-05-04 13:09 52.17379 20.97144 341 ft 8 kts 196°
2026-05-04 13:09 52.17346 20.97085 340 ft 5 kts 239°
2026-05-04 13:09 52.17343 20.97077 340 ft 0 kts 240°